| time (UTC) | temp F | wind direction | speed MPH | gust MPH | rain 1hr in | rain 24hr in | rain mn in | humidity % | barometer mb |
| 20260502163205 | 70 | 280 | 2.0 | 4.0 | 0.00 | 0.00 | 0.00 | 50 | 1018.3 |
| 20260502162205 | 71 | 301 | 3.0 | 5.0 | 0.00 | 0.00 | 0.00 | 48 | 1018.6 |
| 20260502161705 | 71 | 309 | 3.0 | 5.0 | 0.00 | 0.00 | 0.00 | 46 | 1018.7 |
| 20260502160705 | 73 | 261 | 2.0 | 5.0 | 0.00 | 0.00 | 0.00 | 44 | 1018.7 |
| 20260502160205 | 73 | 329 | 2.0 | 5.0 | 0.00 | 0.00 | 0.00 | 44 | 1018.8 |
| 20260502152205 | 74 | 357 | 3.0 | 6.0 | 0.00 | 0.00 | 0.00 | 42 | 1019.1 |
| 20260502151205 | 74 | 326 | 2.0 | 5.0 | 0.00 | 0.00 | 0.00 | 44 | 1019.1 |
| 20260502150705 | 74 | 322 | 3.0 | 5.0 | 0.00 | 0.00 | 0.00 | 43 | 1019.2 |
| 20260502150205 | 74 | 283 | 2.0 | 5.0 | 0.00 | 0.00 | 0.00 | 42 | 1019.2 |
| 20260502130205 | 73 | 216 | 1.0 | 3.0 | 0.00 | 0.00 | 0.00 | 47 | 1020.7 |
| 20260502123205 | 71 | 251 | 2.0 | 6.0 | 0.00 | 0.00 | 0.00 | 46 | 1021.1 |
| 20260502122705 | 71 | 220 | 3.0 | 6.0 | 0.00 | 0.00 | 0.00 | 49 | 1021.1 |
| 20260502122204 | 71 | 221 | 3.0 | 6.0 | 0.00 | 0.00 | 0.00 | 46 | 1021.2 |
| 20260502121705 | 73 | 204 | 2.0 | 8.0 | 0.00 | 0.00 | 0.00 | 49 | 1021.2 |
| 20260502121205 | 74 | 193 | 2.0 | 8.0 | 0.00 | 0.00 | 0.00 | 48 | 1021.2 |
| 20260502120705 | 73 | 155 | 2.0 | 8.0 | 0.00 | 0.00 | 0.00 | 47 | 1021.4 |
| 20260502120205 | 72 | 183 | 2.0 | 5.0 | 0.00 | 0.00 | 0.00 | 50 | 1021.3 |
| 20260502115705 | 72 | 131 | 2.0 | 5.0 | 0.00 | 0.00 | 0.00 | 49 | 1021.4 |
| 20260502115204 | 72 | 186 | 1.0 | 3.0 | 0.00 | 0.00 | 0.00 | 46 | 1021.4 |
| 20260502114705 | 72 | 63 | 1.0 | 2.0 | 0.00 | 0.00 | 0.00 | 45 | 1021.5 |
| 20260502114205 | 73 | 28 | 1.0 | 2.0 | 0.00 | 0.00 | 0.00 | 45 | 1021.6 |
| 20260502113705 | 73 | 101 | 1.0 | 2.0 | 0.00 | 0.00 | 0.00 | 47 | 1021.6 |
| 20260502113205 | 72 | 120 | 1.0 | 2.0 | 0.00 | 0.00 | 0.00 | 52 | 1021.7 |
| 20260502112205 | 69 | 166 | 0.0 | 3.0 | 0.00 | 0.00 | 0.00 | 51 | 1021.8 |
| 20260502111705 | 69 | 122 | 0.0 | 4.0 | 0.00 | 0.00 | 0.00 | 51 | 1021.8 |
| 20260502111205 | 69 | 122 | 1.0 | 5.0 | 0.00 | 0.00 | 0.00 | 52 | 1021.8 |
| 20260502110205 | 68 | 48 | 3.0 | 5.0 | 0.00 | 0.00 | 0.00 | 50 | 1021.9 |
| 20260502105705 | 69 | 290 | 3.0 | 5.0 | 0.00 | 0.00 | 0.00 | 52 | 1022.0 |
| 20260502105205 | 69 | 265 | 2.0 | 4.0 | 0.00 | 0.00 | 0.00 | 52 | 1021.9 |
| 20260502104205 | 69 | 321 | 1.0 | 6.0 | 0.00 | 0.00 | 0.00 | 50 | 1022.0 |
| 20260502103705 | 69 | 271 | 2.0 | 9.0 | 0.00 | 0.00 | 0.00 | 51 | 1022.0 |
| 20260502103205 | 69 | 357 | 3.0 | 9.0 | 0.00 | 0.00 | 0.00 | 51 | 1022.0 |
| 20260502102705 | 69 | 325 | 4.0 | 9.0 | 0.00 | 0.00 | 0.00 | 51 | 1022.1 |
| 20260502102205 | 69 | 318 | 4.0 | 7.0 | 0.00 | 0.00 | 0.00 | 52 | 1022.3 |
| 20260502101705 | 70 | 317 | 2.0 | 5.0 | 0.00 | 0.00 | 0.00 | 51 | 1022.3 |
| 20260502101205 | 70 | 303 | 1.0 | 3.0 | 0.00 | 0.00 | 0.00 | 52 | 1022.4 |
| 20260502100705 | 70 | 153 | 1.0 | 4.0 | 0.00 | 0.00 | 0.00 | 49 | 1022.4 |
| 20260502100205 | 69 | 155 | 1.0 | 5.0 | 0.00 | 0.00 | 0.00 | 52 | 1022.4 |
| 20260502091205 | 67 | 284 | 3.0 | 4.0 | 0.00 | 0.00 | 0.00 | 54 | 1023.0 |
| 20260502090705 | 67 | 279 | 1.0 | 4.0 | 0.00 | 0.00 | 0.00 | 54 | 1022.9 |
| 20260502090205 | 67 | 221 | 1.0 | 7.0 | 0.00 | 0.00 | 0.00 | 56 | 1022.9 |
| 20260502071205 | 53 | 141 | 0.0 | 1.0 | 0.00 | 0.00 | 0.00 | 64 | 1023.4 |
| 20260502070705 | 53 | 141 | 0.0 | 1.0 | 0.00 | 0.00 | 0.00 | 68 | 1023.4 |
| 20260502070205 | 52 | 141 | 0.0 | 1.0 | 0.00 | 0.00 | 0.00 | 68 | 1023.6 |
| 20260502065705 | 51 | 141 | 0.0 | 1.0 | 0.00 | 0.00 | 0.00 | 70 | 1023.6 |
| 20260502065205 | 51 | 141 | 0.0 | 1.0 | 0.00 | 0.00 | 0.00 | 72 | 1023.6 |
| 20260502064705 | 50 | 141 | 0.0 | 1.0 | 0.00 | 0.00 | 0.00 | 74 | 1023.7 |
| 20260502064205 | 49 | 141 | 0.0 | 1.0 | 0.00 | 0.00 | 0.00 | 75 | 1023.7 |
| 20260502063705 | 49 | 141 | 0.0 | 1.0 | 0.00 | 0.00 | 0.00 | 76 | 1023.6 |
| 20260502062705 | 47 | 141 | 0.0 | 0.0 | 0.00 | 0.00 | 0.00 | 81 | 1023.6 |
| 20260502062205 | 47 | 141 | 0.0 | 0.0 | 0.00 | 0.00 | 0.00 | 83 | 1023.6 |
| 20260502061705 | 46 | 141 | 0.0 | 1.0 | 0.00 | 0.00 | 0.00 | 84 | 1023.6 |
| 20260502060705 | 46 | 141 | 0.0 | 1.0 | 0.00 | 0.00 | 0.00 | 84 | 1023.6 |
| 20260502055205 | 43 | 153 | 0.0 | 1.0 | 0.00 | 0.00 | 0.00 | 87 | 1023.6 |
| 20260502054705 | 42 | 180 | 0.0 | 1.0 | 0.00 | 0.00 | 0.00 | 85 | 1023.6 |
| 20260502054205 | 42 | 191 | 0.0 | 1.0 | 0.00 | 0.00 | 0.00 | 86 | 1023.6 |
| 20260502053205 | 41 | 191 | 0.0 | 0.0 | 0.00 | 0.00 | 0.00 | 86 | 1023.7 |
| 20260502052705 | 41 | 191 | 0.0 | 0.0 | 0.00 | 0.00 | 0.00 | 88 | 1023.7 |
| 20260502051705 | 39 | 191 | 0.0 | 0.0 | 0.00 | 0.00 | 0.00 | 89 | 1023.7 |
| 20260502051205 | 39 | 191 | 0.0 | 0.0 | 0.00 | 0.00 | 0.00 | 89 | 1023.6 |
| 20260502050728 | 38 | 191 | 0.0 | 0.0 | 0.00 | 0.00 | 0.00 | 91 | 1023.6 |
| 20260502050205 | 37 | 191 | 0.0 | 0.0 | 0.00 | 0.00 | 0.00 | 91 | 1023.6 |
| 20260502045705 | 37 | 191 | 0.0 | 0.0 | 0.00 | 0.00 | 0.00 | 90 | 1023.4 |
| 20260502045205 | 36 | 191 | 0.0 | 0.0 | 0.00 | 0.00 | 0.00 | 90 | 1023.6 |
| 20260502044705 | 36 | 191 | 0.0 | 0.0 | 0.00 | 0.00 | 0.00 | 90 | 1023.6 |
| 20260502044205 | 36 | 191 | 0.0 | 0.0 | 0.00 | 0.00 | 0.00 | 90 | 1023.6 |
| 20260502043704 | 36 | 191 | 0.0 | 0.0 | 0.00 | 0.00 | 0.00 | 90 | 1023.6 |
| 20260502043205 | 35 | 191 | 0.0 | 0.0 | 0.00 | 0.00 | 0.00 | 90 | 1023.6 |
| 20260502042705 | 35 | 191 | 0.0 | 2.0 | 0.00 | 0.00 | 0.00 | 90 | 1023.4 |
| 20260502042205 | 35 | 191 | 0.0 | 2.0 | 0.00 | 0.00 | 0.00 | 90 | 1023.6 |
| 20260502041705 | 35 | 191 | 0.0 | 2.0 | 0.00 | 0.00 | 0.00 | 90 | 1023.6 |
| 20260502041205 | 35 | 191 | 0.0 | 1.0 | 0.00 | 0.00 | 0.00 | 90 | 1023.6 |
| 20260502040705 | 35 | 191 | 0.0 | 1.0 | 0.00 | 0.00 | 0.00 | 90 | 1023.6 |
| 20260502040204 | 35 | 191 | 0.0 | 0.0 | 0.00 | 0.00 | 0.00 | 90 | 1023.6 |
| 20260502035705 | 35 | 191 | 0.0 | 0.0 | 0.00 | 0.00 | 0.00 | 90 | 1023.7 |
| 20260502035205 | 35 | 191 | 0.0 | 0.0 | 0.00 | 0.00 | 0.00 | 89 | 1023.6 |
| 20260502034705 | 35 | 191 | 0.0 | 0.0 | 0.00 | 0.00 | 0.00 | 89 | 1023.6 |
| 20260502034205 | 36 | 191 | 0.0 | 0.0 | 0.00 | 0.00 | 0.00 | 90 | 1023.6 |
| 20260502033705 | 36 | 191 | 0.0 | 0.0 | 0.00 | 0.00 | 0.00 | 89 | 1023.7 |
| 20260502033205 | 36 | 191 | 0.0 | 0.0 | 0.00 | 0.00 | 0.00 | 89 | 1023.7 |
| 20260502032705 | 36 | 191 | 0.0 | 0.0 | 0.00 | 0.00 | 0.00 | 89 | 1023.7 |
| 20260502032205 | 36 | 191 | 0.0 | 0.0 | 0.00 | 0.00 | 0.00 | 89 | 1023.7 |
| 20260502031705 | 36 | 191 | 0.0 | 0.0 | 0.00 | 0.00 | 0.00 | 89 | 1023.6 |
| 20260502030704 | 36 | 191 | 0.0 | 0.0 | 0.00 | 0.00 | 0.00 | 89 | 1023.6 |
| 20260502030205 | 36 | 191 | 0.0 | 0.0 | 0.00 | 0.00 | 0.00 | 89 | 1023.7 |
| 20260502025705 | 36 | 191 | 0.0 | 0.0 | 0.00 | 0.00 | 0.00 | 89 | 1023.7 |
| 20260502025205 | 36 | 191 | 0.0 | 1.0 | 0.00 | 0.00 | 0.00 | 89 | 1023.8 |
| 20260502024705 | 36 | 191 | 0.0 | 1.0 | 0.00 | 0.00 | 0.00 | 89 | 1023.7 |
| 20260502024205 | 36 | 191 | 0.0 | 2.0 | 0.00 | 0.00 | 0.00 | 89 | 1023.7 |
| 20260502023705 | 36 | 191 | 1.0 | 2.0 | 0.00 | 0.00 | 0.00 | 88 | 1023.7 |
| 20260502022705 | 36 | 135 | 0.0 | 1.0 | 0.00 | 0.00 | 0.00 | 88 | 1023.8 |
| 20260502022205 | 36 | 135 | 0.0 | 1.0 | 0.00 | 0.00 | 0.00 | 87 | 1023.8 |
| 20260502021205 | 36 | 212 | 0.0 | 0.0 | 0.00 | 0.00 | 0.00 | 87 | 1023.8 |
| 20260502020705 | 36 | 212 | 0.0 | 0.0 | 0.00 | 0.00 | 0.00 | 87 | 1023.8 |
| 20260502020205 | 37 | 212 | 0.0 | 0.0 | 0.00 | 0.00 | 0.00 | 87 | 1023.8 |
| 20260502015704 | 37 | 212 | 0.0 | 0.0 | 0.00 | 0.00 | 0.00 | 87 | 1023.9 |
| 20260502015205 | 37 | 212 | 0.0 | 0.0 | 0.00 | 0.00 | 0.00 | 86 | 1023.9 |
| 20260502014705 | 37 | 212 | 0.0 | 0.0 | 0.00 | 0.00 | 0.00 | 86 | 1024.0 |
| 20260502014205 | 37 | 212 | 0.0 | 1.0 | 0.00 | 0.00 | 0.00 | 86 | 1024.0 |
| 20260502013705 | 37 | 212 | 0.0 | 1.0 | 0.00 | 0.00 | 0.00 | 86 | 1024.0 |
| 20260502013204 | 37 | 212 | 0.0 | 1.0 | 0.00 | 0.00 | 0.00 | 86 | 1024.1 |
| 20260502012205 | 37 | 212 | 0.0 | 1.0 | 0.00 | 0.00 | 0.00 | 86 | 1024.0 |
| 20260502011731 | 37 | 212 | 0.0 | 0.0 | 0.00 | 0.00 | 0.00 | 86 | 1024.1 |
| 20260502010705 | 38 | 212 | 0.0 | 0.0 | 0.00 | 0.00 | 0.00 | 86 | 1024.1 |
| 20260502010205 | 38 | 212 | 0.0 | 0.0 | 0.00 | 0.00 | 0.00 | 86 | 1024.1 |
| 20260502005205 | 38 | 212 | 0.0 | 1.0 | 0.00 | 0.00 | 0.00 | 85 | 1024.1 |
| 20260502004705 | 38 | 212 | 0.0 | 1.0 | 0.00 | 0.00 | 0.00 | 85 | 1024.3 |
| 20260502004205 | 38 | 212 | 0.0 | 0.0 | 0.00 | 0.00 | 0.00 | 85 | 1024.2 |
| 20260502003705 | 38 | 212 | 0.0 | 0.0 | 0.00 | 0.00 | 0.00 | 85 | 1024.3 |
| 20260502003205 | 38 | 212 | 0.0 | 1.0 | 0.00 | 0.00 | 0.00 | 85 | 1024.3 |
| 20260502002705 | 38 | 212 | 0.0 | 1.0 | 0.00 | 0.00 | 0.00 | 85 | 1024.3 |
| 20260502002205 | 38 | 212 | 0.0 | 1.0 | 0.00 | 0.00 | 0.00 | 84 | 1024.3 |
| 20260502001705 | 39 | 212 | 0.0 | 1.0 | 0.00 | 0.00 | 0.00 | 84 | 1024.4 |
| 20260502001205 | 39 | 212 | 0.0 | 0.0 | 0.00 | 0.00 | 0.00 | 84 | 1024.4 |
| 20260502000206 | 39 | 212 | 0.0 | 1.0 | 0.00 | 0.00 | 0.00 | 84 | 1024.5 |
| 20260501235204 | 39 | 212 | 0.0 | 0.0 | 0.00 | 0.00 | 0.00 | 83 | 1024.5 |
| 20260501234705 | 39 | 212 | 0.0 | 0.0 | 0.00 | 0.00 | 0.00 | 82 | 1024.5 |
| 20260501234204 | 40 | 212 | 0.0 | 0.0 | 0.00 | 0.00 | 0.00 | 82 | 1024.5 |
| 20260501233204 | 40 | 212 | 0.0 | 0.0 | 0.00 | 0.00 | 0.00 | 82 | 1024.6 |
| 20260501232705 | 40 | 212 | 0.0 | 0.0 | 0.00 | 0.00 | 0.00 | 81 | 1024.6 |
| 20260501232205 | 40 | 212 | 0.0 | 1.0 | 0.00 | 0.00 | 0.00 | 81 | 1024.6 |
| 20260501231705 | 40 | 212 | 0.0 | 1.0 | 0.00 | 0.00 | 0.00 | 81 | 1024.6 |
| 20260501231205 | 40 | 212 | 0.0 | 1.0 | 0.00 | 0.00 | 0.00 | 81 | 1024.6 |
| 20260501230705 | 40 | 212 | 0.0 | 0.0 | 0.00 | 0.00 | 0.00 | 81 | 1024.6 |
| 20260501230205 | 41 | 212 | 0.0 | 1.0 | 0.00 | 0.00 | 0.00 | 80 | 1024.6 |
| 20260501225705 | 41 | 212 | 0.0 | 1.0 | 0.00 | 0.00 | 0.00 | 80 | 1024.6 |
| 20260501225204 | 41 | 212 | 0.0 | 1.0 | 0.00 | 0.00 | 0.00 | 80 | 1024.6 |
| 20260501224706 | 41 | 212 | 0.0 | 0.0 | 0.00 | 0.00 | 0.00 | 79 | 1024.6 |
| 20260501224205 | 41 | 212 | 0.0 | 0.0 | 0.00 | 0.00 | 0.00 | 79 | 1024.6 |
| 20260501223705 | 42 | 212 | 0.0 | 0.0 | 0.00 | 0.00 | 0.00 | 79 | 1024.5 |
| 20260501223205 | 42 | 212 | 0.0 | 0.0 | 0.00 | 0.00 | 0.00 | 79 | 1024.6 |
| 20260501222205 | 42 | 212 | 0.0 | 0.0 | 0.00 | 0.00 | 0.00 | 79 | 1024.6 |
| 20260501221705 | 42 | 212 | 0.0 | 0.0 | 0.00 | 0.00 | 0.00 | 78 | 1024.8 |
| 20260501221205 | 42 | 212 | 0.0 | 0.0 | 0.00 | 0.00 | 0.00 | 77 | 1024.6 |
| 20260501220705 | 42 | 212 | 0.0 | 1.0 | 0.00 | 0.00 | 0.00 | 77 | 1024.6 |
| 20260501220205 | 43 | 212 | 0.0 | 1.0 | 0.00 | 0.00 | 0.00 | 77 | 1024.5 |
| 20260501215705 | 43 | 212 | 0.0 | 1.0 | 0.00 | 0.00 | 0.00 | 77 | 1024.5 |
| 20260501215205 | 43 | 212 | 0.0 | 1.0 | 0.00 | 0.00 | 0.00 | 77 | 1024.6 |
| 20260501214705 | 43 | 191 | 0.0 | 0.0 | 0.00 | 0.00 | 0.00 | 77 | 1024.6 |
| 20260501213705 | 44 | 191 | 0.0 | 0.0 | 0.00 | 0.00 | 0.00 | 76 | 1024.6 |
| 20260501213205 | 44 | 191 | 0.0 | 0.0 | 0.00 | 0.00 | 0.00 | 75 | 1024.5 |
| 20260501212705 | 44 | 191 | 0.0 | 1.0 | 0.00 | 0.00 | 0.00 | 75 | 1024.4 |
| 20260501212205 | 44 | 191 | 0.0 | 1.0 | 0.00 | 0.00 | 0.00 | 75 | 1024.5 |
| 20260501211705 | 44 | 191 | 0.0 | 1.0 | 0.00 | 0.00 | 0.00 | 74 | 1024.5 |
| 20260501211205 | 45 | 191 | 0.0 | 0.0 | 0.00 | 0.00 | 0.00 | 73 | 1024.4 |
| 20260501210706 | 45 | 191 | 0.0 | 1.0 | 0.00 | 0.00 | 0.00 | 73 | 1024.4 |
| 20260501210205 | 45 | 191 | 0.0 | 1.0 | 0.00 | 0.00 | 0.00 | 73 | 1024.5 |
| 20260501205205 | 46 | 191 | 0.0 | 0.0 | 0.00 | 0.00 | 0.00 | 71 | 1024.4 |
| 20260501204706 | 46 | 191 | 0.0 | 1.0 | 0.00 | 0.00 | 0.00 | 71 | 1024.4 |
| 20260501203705 | 47 | 191 | 0.0 | 1.0 | 0.00 | 0.00 | 0.00 | 69 | 1024.4 |
| 20260501203205 | 47 | 191 | 0.0 | 0.0 | 0.00 | 0.00 | 0.00 | 68 | 1024.4 |
| 20260501202705 | 47 | 191 | 0.0 | 0.0 | 0.00 | 0.00 | 0.00 | 68 | 1024.4 |
| 20260501201705 | 48 | 191 | 0.0 | 1.0 | 0.00 | 0.00 | 0.00 | 66 | 1024.3 |
| 20260501201205 | 48 | 191 | 0.0 | 1.0 | 0.00 | 0.00 | 0.00 | 66 | 1024.3 |
| 20260501200705 | 49 | 191 | 0.0 | 1.0 | 0.00 | 0.00 | 0.00 | 65 | 1024.3 |
| 20260501200205 | 49 | 191 | 0.0 | 1.0 | 0.00 | 0.00 | 0.00 | 64 | 1024.3 |
| 20260501195705 | 49 | 191 | 0.0 | 0.0 | 0.00 | 0.00 | 0.00 | 63 | 1024.3 |
| 20260501195205 | 50 | 191 | 0.0 | 1.0 | 0.00 | 0.00 | 0.00 | 62 | 1024.3 |
| 20260501194705 | 50 | 191 | 0.0 | 1.0 | 0.00 | 0.00 | 0.00 | 62 | 1024.2 |
| 20260501194205 | 51 | 191 | 0.0 | 0.0 | 0.00 | 0.00 | 0.00 | 61 | 1024.1 |
| 20260501193705 | 51 | 191 | 0.0 | 0.0 | 0.00 | 0.00 | 0.00 | 60 | 1024.1 |
| 20260501193205 | 51 | 191 | 0.0 | 0.0 | 0.00 | 0.00 | 0.00 | 59 | 1024.1 |
| 20260501192705 | 52 | 191 | 0.0 | 0.0 | 0.00 | 0.00 | 0.00 | 58 | 1024.1 |
| 20260501192205 | 53 | 191 | 0.0 | 0.0 | 0.00 | 0.00 | 0.00 | 56 | 1024.1 |
| 20260501191205 | 53 | 191 | 0.0 | 0.0 | 0.00 | 0.00 | 0.00 | 54 | 1024.0 |
| 20260501190705 | 54 | 191 | 0.0 | 1.0 | 0.00 | 0.00 | 0.00 | 53 | 1024.0 |
| 20260501190205 | 55 | 191 | 0.0 | 1.0 | 0.00 | 0.00 | 0.00 | 52 | 1024.0 |
| 20260501185705 | 55 | 191 | 0.0 | 1.0 | 0.00 | 0.00 | 0.00 | 52 | 1023.9 |
| 20260501185205 | 56 | 191 | 0.0 | 1.0 | 0.00 | 0.00 | 0.00 | 50 | 1023.9 |
| 20260501184705 | 57 | 191 | 0.0 | 2.0 | 0.00 | 0.00 | 0.00 | 50 | 1023.9 |
| 20260501183705 | 58 | 191 | 0.0 | 2.0 | 0.00 | 0.00 | 0.00 | 50 | 1023.8 |
| 20260501183205 | 58 | 119 | 0.0 | 1.0 | 0.00 | 0.00 | 0.00 | 44 | 1023.8 |
| 20260501182205 | 60 | 119 | 0.0 | 1.0 | 0.00 | 0.00 | 0.00 | 42 | 1023.7 |
| 20260501181705 | 61 | 119 | 0.0 | 1.0 | 0.00 | 0.00 | 0.00 | 41 | 1023.7 |
| 20260501181230 | 62 | 149 | 0.0 | 2.0 | 0.00 | 0.00 | 0.00 | 41 | 1023.8 |
| 20260501180205 | 63 | 149 | 0.0 | 3.0 | 0.00 | 0.00 | 0.00 | 38 | 1023.7 |
| 20260501175705 | 64 | 153 | 0.0 | 3.0 | 0.00 | 0.00 | 0.00 | 38 | 1023.7 |
| 20260501175205 | 64 | 130 | 0.0 | 3.0 | 0.00 | 0.00 | 0.00 | 37 | 1023.7 |
| 20260501174705 | 65 | 155 | 0.0 | 3.0 | 0.00 | 0.00 | 0.00 | 36 | 1023.6 |
| 20260501174205 | 66 | 129 | 1.0 | 5.0 | 0.00 | 0.00 | 0.00 | 36 | 1023.4 |
| 20260501173705 | 66 | 179 | 2.0 | 5.0 | 0.00 | 0.00 | 0.00 | 35 | 1023.4 |
| 20260501173205 | 67 | 181 | 2.0 | 5.0 | 0.00 | 0.00 | 0.00 | 33 | 1023.4 |
| 20260501172212 | 67 | 197 | 2.0 | 5.0 | 0.00 | 0.00 | 0.00 | 33 | 1023.4 |
| 20260501171705 | 67 | 157 | 1.0 | 5.0 | 0.00 | 0.00 | 0.00 | 32 | 1023.6 |
| 20260501170705 | 67 | 105 | 2.0 | 4.0 | 0.00 | 0.00 | 0.00 | 30 | 1023.6 |
| 20260501170205 | 68 | 177 | 2.0 | 4.0 | 0.00 | 0.00 | 0.00 | 32 | 1023.6 |
| 20260501165705 | 69 | 137 | 1.0 | 4.0 | 0.00 | 0.00 | 0.00 | 33 | 1023.6 |
| 20260501164205 | 69 | 115 | 1.0 | 5.0 | 0.00 | 0.00 | 0.00 | 31 | 1023.4 |
| 20260501163705 | 69 | 114 | 1.0 | 4.0 | 0.00 | 0.00 | 0.00 | 31 | 1023.4 |